Year,Month,Day,Hour,Minute,Value (Times are PST for temperature in C)
2013,10,13,00,00,4.70
2013,10,13,00,01,4.70
2013,10,13,00,02,4.70
2013,10,13,00,03,4.70
2013,10,13,00,04,4.70
2013,10,13,00,05,4.70
2013,10,13,00,06,4.70
2013,10,13,00,07,4.70
2013,10,13,00,08,4.70
2013,10,13,00,09,4.70
2013,10,13,00,10,4.70
2013,10,13,00,11,4.70
2013,10,13,00,12,4.70
2013,10,13,00,13,4.70
2013,10,13,00,14,4.70
2013,10,13,00,15,4.70
2013,10,13,00,16,4.70
2013,10,13,00,17,4.70
2013,10,13,00,18,4.70
2013,10,13,00,19,4.70
2013,10,13,00,20,4.70
2013,10,13,00,21,4.70
2013,10,13,00,22,4.60
2013,10,13,00,23,4.60
2013,10,13,00,24,4.60
2013,10,13,00,25,4.60
2013,10,13,00,26,4.60
2013,10,13,00,27,4.60
2013,10,13,00,28,4.60
2013,10,13,00,29,4.50
2013,10,13,00,30,4.50
2013,10,13,00,31,4.50
2013,10,13,00,32,4.60
2013,10,13,00,33,4.60
2013,10,13,00,34,4.60
2013,10,13,00,35,4.60
2013,10,13,00,36,4.60
2013,10,13,00,37,4.60
2013,10,13,00,38,4.60
2013,10,13,00,39,4.60
2013,10,13,00,40,4.60
2013,10,13,00,41,4.60
2013,10,13,00,42,4.70
2013,10,13,00,43,4.70
2013,10,13,00,44,4.70
2013,10,13,00,45,4.60
2013,10,13,00,46,4.60
2013,10,13,00,47,4.60
2013,10,13,00,48,4.60
2013,10,13,00,49,4.60
2013,10,13,00,50,4.60
2013,10,13,00,51,4.60
2013,10,13,00,52,4.60
2013,10,13,00,53,4.50
2013,10,13,00,54,4.50
2013,10,13,00,55,4.50
2013,10,13,00,56,4.50
2013,10,13,00,57,4.50
2013,10,13,00,58,4.40
2013,10,13,00,59,4.40
2013,10,13,01,00,4.40
2013,10,13,01,01,4.40
2013,10,13,01,02,4.40
2013,10,13,01,03,4.40
2013,10,13,01,04,4.50
2013,10,13,01,05,4.50
2013,10,13,01,06,4.50
2013,10,13,01,07,4.50
2013,10,13,01,08,4.60
2013,10,13,01,09,4.60
2013,10,13,01,10,4.60
2013,10,13,01,11,4.60
2013,10,13,01,12,4.60
2013,10,13,01,13,4.60
2013,10,13,01,14,4.60
2013,10,13,01,15,4.60
2013,10,13,01,16,4.60
2013,10,13,01,17,4.60
2013,10,13,01,18,4.50
2013,10,13,01,19,4.50
2013,10,13,01,20,4.50
2013,10,13,01,21,4.50
2013,10,13,01,22,4.50
2013,10,13,01,23,4.50
2013,10,13,01,24,4.60
2013,10,13,01,25,4.60
2013,10,13,01,26,4.60
2013,10,13,01,27,4.60
2013,10,13,01,28,4.60
2013,10,13,01,29,4.60
2013,10,13,01,30,4.60
2013,10,13,01,31,4.60
2013,10,13,01,32,4.60
2013,10,13,01,33,4.60
2013,10,13,01,34,4.60
2013,10,13,01,35,4.60
2013,10,13,01,36,4.60
2013,10,13,01,37,4.60
2013,10,13,01,38,4.60
2013,10,13,01,39,4.60
2013,10,13,01,40,4.60
2013,10,13,01,41,4.60
2013,10,13,01,42,4.60
2013,10,13,01,43,4.60
2013,10,13,01,44,4.60
2013,10,13,01,45,4.60
2013,10,13,01,46,4.60
2013,10,13,01,47,4.60
2013,10,13,01,48,4.50
2013,10,13,01,49,4.50
2013,10,13,01,50,4.50
2013,10,13,01,51,4.50
2013,10,13,01,52,4.50
2013,10,13,01,53,4.40
2013,10,13,01,54,4.40
2013,10,13,01,55,4.40
2013,10,13,01,56,4.40
2013,10,13,01,57,4.40
2013,10,13,01,58,4.40
2013,10,13,01,59,4.40
2013,10,13,02,00,4.30
2013,10,13,02,01,4.30
2013,10,13,02,02,4.30
2013,10,13,02,03,4.30
2013,10,13,02,04,4.30
2013,10,13,02,05,4.30
2013,10,13,02,06,4.30
2013,10,13,02,07,4.30
2013,10,13,02,08,4.20
2013,10,13,02,09,4.20
2013,10,13,02,10,4.20
2013,10,13,02,11,4.20
2013,10,13,02,12,4.20
2013,10,13,02,13,4.20
2013,10,13,02,14,4.20
2013,10,13,02,15,4.20
2013,10,13,02,16,4.20
2013,10,13,02,17,4.20
2013,10,13,02,18,4.20
2013,10,13,02,19,4.20
2013,10,13,02,20,4.20
2013,10,13,02,21,4.20
2013,10,13,02,22,4.10
2013,10,13,02,23,4.10
2013,10,13,02,24,4.10
2013,10,13,02,25,4.10
2013,10,13,02,26,4.10
2013,10,13,02,27,4.10
2013,10,13,02,28,4.10
2013,10,13,02,29,4.10
2013,10,13,02,30,4.10
2013,10,13,02,31,4.10
2013,10,13,02,32,4.00
2013,10,13,02,33,4.00
2013,10,13,02,34,4.00
2013,10,13,02,35,4.00
2013,10,13,02,36,3.90
2013,10,13,02,37,3.90
2013,10,13,02,38,3.90
2013,10,13,02,39,3.90
2013,10,13,02,40,3.90
2013,10,13,02,41,3.80
2013,10,13,02,42,3.80
2013,10,13,02,43,3.80
2013,10,13,02,44,3.80
2013,10,13,02,45,3.80
2013,10,13,02,46,3.80
2013,10,13,02,47,3.70
2013,10,13,02,48,3.70
2013,10,13,02,49,3.70
2013,10,13,02,50,3.70
2013,10,13,02,51,3.70
2013,10,13,02,52,3.70
2013,10,13,02,53,3.70
2013,10,13,02,54,3.70
2013,10,13,02,55,3.70
2013,10,13,02,56,3.70
2013,10,13,02,57,3.70
2013,10,13,02,58,3.70
2013,10,13,02,59,3.70
2013,10,13,03,00,3.70
2013,10,13,03,01,3.60
2013,10,13,03,02,3.60
2013,10,13,03,03,3.70
2013,10,13,03,04,3.60
2013,10,13,03,05,3.60
2013,10,13,03,06,3.60
2013,10,13,03,07,3.60
2013,10,13,03,08,3.60
2013,10,13,03,09,3.60
2013,10,13,03,10,3.60
2013,10,13,03,11,3.60
2013,10,13,03,12,3.60
2013,10,13,03,13,3.60
2013,10,13,03,14,3.50
2013,10,13,03,15,3.50
2013,10,13,03,16,3.50
2013,10,13,03,17,3.50
2013,10,13,03,18,3.50
2013,10,13,03,19,3.50
2013,10,13,03,20,3.50
2013,10,13,03,21,3.40
2013,10,13,03,22,3.40
2013,10,13,03,23,3.40
2013,10,13,03,24,3.40
2013,10,13,03,25,3.40
2013,10,13,03,26,3.40
2013,10,13,03,27,3.40
2013,10,13,03,28,3.40
2013,10,13,03,29,3.40
2013,10,13,03,30,3.30
2013,10,13,03,31,3.30
2013,10,13,03,32,3.30
2013,10,13,03,33,3.30
2013,10,13,03,34,3.30
2013,10,13,03,35,3.30
2013,10,13,03,36,3.30
2013,10,13,03,37,3.30
2013,10,13,03,38,3.30
2013,10,13,03,39,3.30
2013,10,13,03,40,3.30
2013,10,13,03,41,3.30
2013,10,13,03,42,3.30
2013,10,13,03,43,3.20
2013,10,13,03,44,3.20
2013,10,13,03,45,3.20
2013,10,13,03,46,3.20
2013,10,13,03,47,3.20
2013,10,13,03,48,3.20
2013,10,13,03,49,3.20
2013,10,13,03,50,3.20
2013,10,13,03,51,3.20
2013,10,13,03,52,3.20
2013,10,13,03,53,3.10
2013,10,13,03,54,3.10
2013,10,13,03,55,3.10
2013,10,13,03,56,3.10
2013,10,13,03,57,3.10
2013,10,13,03,58,3.10
2013,10,13,03,59,3.10
2013,10,13,04,00,3.10
2013,10,13,04,01,3.10
2013,10,13,04,02,3.10
2013,10,13,04,03,3.10
2013,10,13,04,04,3.10
2013,10,13,04,05,3.10
2013,10,13,04,06,3.10
2013,10,13,04,07,3.10
2013,10,13,04,08,3.10
2013,10,13,04,09,3.10
2013,10,13,04,10,3.10
2013,10,13,04,11,3.10
2013,10,13,04,12,3.10
2013,10,13,04,13,3.10
2013,10,13,04,14,3.10
2013,10,13,04,15,3.10
2013,10,13,04,16,3.10
2013,10,13,04,17,3.10
2013,10,13,04,18,3.10
2013,10,13,04,19,3.10
2013,10,13,04,20,3.10
2013,10,13,04,21,3.10
2013,10,13,04,22,3.10
2013,10,13,04,23,3.10
2013,10,13,04,24,3.10
2013,10,13,04,25,3.10
2013,10,13,04,26,3.10
2013,10,13,04,27,3.10
2013,10,13,04,28,3.10
2013,10,13,04,29,3.10
2013,10,13,04,30,3.10
2013,10,13,04,31,3.10
2013,10,13,04,32,3.10
2013,10,13,04,33,3.10
2013,10,13,04,34,3.00
2013,10,13,04,35,3.00
2013,10,13,04,36,3.00
2013,10,13,04,37,3.00
2013,10,13,04,38,3.10
2013,10,13,04,39,3.10
2013,10,13,04,40,3.10
2013,10,13,04,41,3.10
2013,10,13,04,42,3.10
2013,10,13,04,43,3.10
2013,10,13,04,44,3.10
2013,10,13,04,45,3.10
2013,10,13,04,46,3.10
2013,10,13,04,47,3.00
2013,10,13,04,48,3.00
2013,10,13,04,49,3.00
2013,10,13,04,50,3.00
2013,10,13,04,51,3.00
2013,10,13,04,52,3.00
2013,10,13,04,53,3.00
2013,10,13,04,54,3.00
2013,10,13,04,55,3.00
2013,10,13,04,56,3.00
2013,10,13,04,57,3.00
2013,10,13,04,58,2.90
2013,10,13,04,59,2.90
2013,10,13,05,00,2.90
2013,10,13,05,01,2.90
2013,10,13,05,02,3.00
2013,10,13,05,03,3.00
2013,10,13,05,04,3.00
2013,10,13,05,05,3.00
2013,10,13,05,06,3.10
2013,10,13,05,07,3.10
2013,10,13,05,08,3.10
2013,10,13,05,09,3.10
2013,10,13,05,10,3.10
2013,10,13,05,11,3.10
2013,10,13,05,12,3.10
2013,10,13,05,13,3.10
2013,10,13,05,14,3.10
2013,10,13,05,15,3.20
2013,10,13,05,16,3.20
2013,10,13,05,17,3.10
2013,10,13,05,18,3.20
2013,10,13,05,19,3.10
2013,10,13,05,20,3.10
2013,10,13,05,21,3.10
2013,10,13,05,22,3.10
2013,10,13,05,23,3.10
2013,10,13,05,24,3.10
2013,10,13,05,25,3.10
2013,10,13,05,26,3.10
2013,10,13,05,27,3.10
2013,10,13,05,28,3.00
2013,10,13,05,29,3.00
2013,10,13,05,30,3.00
2013,10,13,05,31,3.00
2013,10,13,05,32,2.90
2013,10,13,05,33,2.90
2013,10,13,05,34,2.90
2013,10,13,05,35,2.90
2013,10,13,05,36,2.90
2013,10,13,05,37,2.90
2013,10,13,05,38,2.90
2013,10,13,05,39,2.90
2013,10,13,05,40,2.80
2013,10,13,05,41,2.80
2013,10,13,05,42,2.80
2013,10,13,05,43,2.80
2013,10,13,05,44,2.80
2013,10,13,05,45,2.80
2013,10,13,05,46,2.80
2013,10,13,05,47,2.80
2013,10,13,05,48,2.80
2013,10,13,05,49,2.80
2013,10,13,05,50,2.80
2013,10,13,05,51,2.80
2013,10,13,05,52,2.80
2013,10,13,05,53,2.80
2013,10,13,05,54,2.80
2013,10,13,05,55,2.80
2013,10,13,05,56,2.80
2013,10,13,05,57,2.80
2013,10,13,05,58,2.80
2013,10,13,05,59,2.80
2013,10,13,06,00,2.80
2013,10,13,06,01,2.80
2013,10,13,06,02,2.80
2013,10,13,06,03,2.80
2013,10,13,06,04,2.80
2013,10,13,06,05,2.80
2013,10,13,06,06,2.80
2013,10,13,06,07,2.80
2013,10,13,06,08,2.80
2013,10,13,06,09,2.80
2013,10,13,06,10,2.80
2013,10,13,06,11,2.80
2013,10,13,06,12,2.80
2013,10,13,06,13,2.80
2013,10,13,06,14,2.80
2013,10,13,06,15,2.80
2013,10,13,06,16,2.90
2013,10,13,06,17,2.90
2013,10,13,06,18,2.90
2013,10,13,06,19,2.90
2013,10,13,06,20,2.90
2013,10,13,06,21,2.90
2013,10,13,06,22,2.90
2013,10,13,06,23,2.90
2013,10,13,06,24,2.90
2013,10,13,06,25,2.90
2013,10,13,06,26,2.90
2013,10,13,06,27,2.90
2013,10,13,06,28,2.90
2013,10,13,06,29,2.90
2013,10,13,06,30,2.90
2013,10,13,06,31,2.90
2013,10,13,06,32,2.90
2013,10,13,06,33,2.90
2013,10,13,06,34,2.90
2013,10,13,06,35,3.00
2013,10,13,06,36,3.00
2013,10,13,06,37,3.00
2013,10,13,06,38,3.00
2013,10,13,06,39,2.90
2013,10,13,06,40,2.90
2013,10,13,06,41,2.90
2013,10,13,06,42,2.90
2013,10,13,06,43,2.90
2013,10,13,06,44,2.90
2013,10,13,06,45,2.90
2013,10,13,06,46,2.90
2013,10,13,06,47,2.90
2013,10,13,06,48,2.90
2013,10,13,06,49,2.90
2013,10,13,06,50,2.90
2013,10,13,06,51,2.90
2013,10,13,06,52,2.90
2013,10,13,06,53,2.90
2013,10,13,06,54,2.90
2013,10,13,06,55,2.90
2013,10,13,06,56,2.90
2013,10,13,06,57,2.90
2013,10,13,06,58,2.90
2013,10,13,06,59,2.90
2013,10,13,07,00,2.90
2013,10,13,07,01,2.90
2013,10,13,07,02,2.90
2013,10,13,07,03,2.90
2013,10,13,07,04,2.90
2013,10,13,07,05,2.90
2013,10,13,07,06,2.90
2013,10,13,07,07,2.90
2013,10,13,07,08,2.90
2013,10,13,07,09,2.90
2013,10,13,07,10,2.90
2013,10,13,07,11,2.80
2013,10,13,07,12,2.80
2013,10,13,07,13,2.80
2013,10,13,07,14,2.80
2013,10,13,07,15,2.80
2013,10,13,07,16,2.80
2013,10,13,07,17,2.80
2013,10,13,07,18,2.80
2013,10,13,07,19,2.80
2013,10,13,07,20,2.80
2013,10,13,07,21,2.80
2013,10,13,07,22,2.80
2013,10,13,07,23,2.80
2013,10,13,07,24,2.80
2013,10,13,07,25,2.80
2013,10,13,07,26,2.70
2013,10,13,07,27,2.70
2013,10,13,07,28,2.70
2013,10,13,07,29,2.70
2013,10,13,07,30,2.70
2013,10,13,07,31,2.70
2013,10,13,07,32,2.70
2013,10,13,07,33,2.70
2013,10,13,07,34,2.70
2013,10,13,07,35,2.60
2013,10,13,07,36,2.60
2013,10,13,07,37,2.60
2013,10,13,07,38,2.60
2013,10,13,07,39,2.60
2013,10,13,07,40,2.60
2013,10,13,07,41,2.60
2013,10,13,07,42,2.60
2013,10,13,07,43,2.60
2013,10,13,07,44,2.60
2013,10,13,07,45,2.60
2013,10,13,07,46,2.60
2013,10,13,07,47,2.60
2013,10,13,07,48,2.60
2013,10,13,07,49,2.60
2013,10,13,07,50,2.60
2013,10,13,07,51,2.60
2013,10,13,07,52,2.60
2013,10,13,07,53,2.60
2013,10,13,07,54,2.60
2013,10,13,07,55,2.60
2013,10,13,07,56,2.60
2013,10,13,07,57,2.60
2013,10,13,07,58,2.60
2013,10,13,07,59,2.60
2013,10,13,08,00,2.70
2013,10,13,08,01,2.70
2013,10,13,08,02,2.70
2013,10,13,08,03,2.70
2013,10,13,08,04,2.70
2013,10,13,08,05,2.70
2013,10,13,08,06,2.70
2013,10,13,08,07,2.70
2013,10,13,08,08,2.80
2013,10,13,08,09,2.80
2013,10,13,08,10,2.80
2013,10,13,08,11,2.80
2013,10,13,08,12,2.80
2013,10,13,08,13,2.80
2013,10,13,08,14,2.90
2013,10,13,08,15,2.90
2013,10,13,08,16,2.90
2013,10,13,08,17,2.90
2013,10,13,08,18,3.00
2013,10,13,08,19,3.00
2013,10,13,08,20,3.00
2013,10,13,08,21,3.10
2013,10,13,08,22,3.10
2013,10,13,08,23,3.10
2013,10,13,08,24,3.20
2013,10,13,08,25,3.20
2013,10,13,08,26,3.20
2013,10,13,08,27,3.20
2013,10,13,08,28,3.20
2013,10,13,08,29,3.30
2013,10,13,08,30,3.30
2013,10,13,08,31,3.30
2013,10,13,08,32,3.30
2013,10,13,08,33,3.40
2013,10,13,08,34,3.40
2013,10,13,08,35,3.40
2013,10,13,08,36,3.50
2013,10,13,08,37,3.50
2013,10,13,08,38,3.50
2013,10,13,08,39,3.60
2013,10,13,08,40,3.60
2013,10,13,08,41,3.60
2013,10,13,08,42,3.70
2013,10,13,08,43,3.70
2013,10,13,08,44,3.70
2013,10,13,08,45,3.80
2013,10,13,08,46,3.80
2013,10,13,08,47,3.80
2013,10,13,08,48,3.80
2013,10,13,08,49,3.90
2013,10,13,08,50,3.90
2013,10,13,08,51,3.90
2013,10,13,08,52,4.00
2013,10,13,08,53,4.00
2013,10,13,08,54,4.10
2013,10,13,08,55,4.10
2013,10,13,08,56,4.10
2013,10,13,08,57,4.10
2013,10,13,08,58,4.10
2013,10,13,08,59,4.10
2013,10,13,09,00,4.20
2013,10,13,09,01,4.20
2013,10,13,09,02,4.20
2013,10,13,09,03,4.30
2013,10,13,09,04,4.30
2013,10,13,09,05,4.30
2013,10,13,09,06,4.40
2013,10,13,09,07,4.40
2013,10,13,09,08,4.40
2013,10,13,09,09,4.50
2013,10,13,09,10,4.50
2013,10,13,09,11,4.60
2013,10,13,09,12,4.70
2013,10,13,09,13,4.70
2013,10,13,09,14,4.80
2013,10,13,09,15,4.90
2013,10,13,09,16,4.90
2013,10,13,09,17,5.00
2013,10,13,09,18,5.10
2013,10,13,09,19,5.20
2013,10,13,09,20,5.40
2013,10,13,09,21,5.50
2013,10,13,09,22,5.70
2013,10,13,09,23,5.80
2013,10,13,09,24,5.90
2013,10,13,09,25,5.90
2013,10,13,09,26,6.00
2013,10,13,09,27,6.20
2013,10,13,09,28,6.30
2013,10,13,09,29,6.40
2013,10,13,09,30,6.50
2013,10,13,09,31,6.60
2013,10,13,09,32,6.70
2013,10,13,09,33,6.80
2013,10,13,09,34,6.90
2013,10,13,09,35,7.00
2013,10,13,09,36,7.10
2013,10,13,09,37,7.10
2013,10,13,09,38,7.20
2013,10,13,09,39,7.20
2013,10,13,09,40,7.20
2013,10,13,09,41,7.20
2013,10,13,09,42,7.20
2013,10,13,09,43,7.20
2013,10,13,09,44,7.20
2013,10,13,09,45,7.30
2013,10,13,09,46,7.30
2013,10,13,09,47,7.30
2013,10,13,09,48,7.30
2013,10,13,09,49,7.30
2013,10,13,09,50,7.30
2013,10,13,09,51,7.30
2013,10,13,09,52,7.30
2013,10,13,09,53,7.30
2013,10,13,09,54,7.30
2013,10,13,09,55,7.30
2013,10,13,09,56,7.30
2013,10,13,09,57,7.40
2013,10,13,09,58,7.40
2013,10,13,09,59,7.50
2013,10,13,10,00,7.50
2013,10,13,10,01,7.60
2013,10,13,10,02,7.60
2013,10,13,10,03,7.70
2013,10,13,10,04,7.70
2013,10,13,10,05,7.80
2013,10,13,10,06,7.80
2013,10,13,10,07,7.90
2013,10,13,10,08,8.00
2013,10,13,10,09,8.10
2013,10,13,10,10,8.10
2013,10,13,10,11,8.20
2013,10,13,10,12,8.20
2013,10,13,10,13,8.30
2013,10,13,10,14,8.30
2013,10,13,10,15,8.40
2013,10,13,10,16,8.40
2013,10,13,10,17,8.50
2013,10,13,10,18,8.50
2013,10,13,10,19,8.60
2013,10,13,10,20,8.60
2013,10,13,10,21,8.70
2013,10,13,10,22,8.70
2013,10,13,10,23,8.80
2013,10,13,10,24,8.80
2013,10,13,10,25,8.80
2013,10,13,10,26,8.90
2013,10,13,10,27,9.00
2013,10,13,10,28,9.00
2013,10,13,10,29,9.10
2013,10,13,10,30,9.10
2013,10,13,10,31,9.10
2013,10,13,10,32,9.20
2013,10,13,10,33,9.20
2013,10,13,10,34,9.30
2013,10,13,10,35,9.30
2013,10,13,10,36,9.40
2013,10,13,10,37,9.40
2013,10,13,10,38,9.50
2013,10,13,10,39,9.60
2013,10,13,10,40,9.70
2013,10,13,10,41,9.70
2013,10,13,10,42,9.80
2013,10,13,10,43,9.90
2013,10,13,10,44,10.00
2013,10,13,10,45,10.10
2013,10,13,10,46,10.10
2013,10,13,10,47,10.00
2013,10,13,10,48,10.00
2013,10,13,10,49,9.90
2013,10,13,10,50,9.90
2013,10,13,10,51,9.90
2013,10,13,10,52,9.90
2013,10,13,10,53,9.90
2013,10,13,10,54,10.00
2013,10,13,10,55,10.10
2013,10,13,10,56,10.10
2013,10,13,10,57,10.10
2013,10,13,10,58,10.10
2013,10,13,10,59,10.00
2013,10,13,11,00,10.00
2013,10,13,11,01,10.10
2013,10,13,11,02,10.10
2013,10,13,11,03,10.10
2013,10,13,11,04,10.20
2013,10,13,11,05,10.20
2013,10,13,11,06,10.30
2013,10,13,11,07,10.30
2013,10,13,11,08,10.30
2013,10,13,11,09,10.30
2013,10,13,11,10,10.30
2013,10,13,11,11,10.30
2013,10,13,11,12,10.30
2013,10,13,11,13,10.30
2013,10,13,11,14,10.30
2013,10,13,11,15,10.30
2013,10,13,11,16,10.30
2013,10,13,11,17,10.30
2013,10,13,11,18,10.30
2013,10,13,11,19,10.30
2013,10,13,11,20,10.30
2013,10,13,11,21,10.40
2013,10,13,11,22,10.40
2013,10,13,11,23,10.40
2013,10,13,11,24,10.40
2013,10,13,11,25,10.50
2013,10,13,11,26,10.50
2013,10,13,11,27,10.50
2013,10,13,11,28,10.60
2013,10,13,11,29,10.60
2013,10,13,11,30,10.60
2013,10,13,11,31,10.70
2013,10,13,11,32,10.70
2013,10,13,11,33,10.80
2013,10,13,11,34,10.90
2013,10,13,11,35,10.90
2013,10,13,11,36,11.00
2013,10,13,11,37,11.10
2013,10,13,11,38,11.10
2013,10,13,11,39,11.20
2013,10,13,11,40,11.20
2013,10,13,11,41,11.30
2013,10,13,11,42,11.40
2013,10,13,11,43,11.50
2013,10,13,11,44,11.50
2013,10,13,11,45,11.60
2013,10,13,11,46,11.60
2013,10,13,11,47,11.60
2013,10,13,11,48,11.60
2013,10,13,11,49,11.70
2013,10,13,11,50,11.70
2013,10,13,11,51,11.70
2013,10,13,11,52,11.70
2013,10,13,11,53,11.80
2013,10,13,11,54,11.90
2013,10,13,11,55,12.00
2013,10,13,11,56,12.10
2013,10,13,11,57,12.20
2013,10,13,11,58,12.20
2013,10,13,11,59,12.20
2013,10,13,12,00,12.20
2013,10,13,12,01,12.20
2013,10,13,12,02,12.10
2013,10,13,12,03,12.20
2013,10,13,12,04,12.20
2013,10,13,12,05,12.20
2013,10,13,12,06,12.20
2013,10,13,12,07,12.20
2013,10,13,12,08,12.20
2013,10,13,12,09,12.20
2013,10,13,12,10,12.30
2013,10,13,12,11,12.30
2013,10,13,12,12,12.30
2013,10,13,12,13,12.30
2013,10,13,12,14,12.30
2013,10,13,12,15,12.40
2013,10,13,12,16,12.40
2013,10,13,12,17,12.40
2013,10,13,12,18,12.40
2013,10,13,12,19,12.40
2013,10,13,12,20,12.40
2013,10,13,12,21,12.40
2013,10,13,12,22,12.40
2013,10,13,12,23,12.40
2013,10,13,12,24,12.50
2013,10,13,12,25,12.60
2013,10,13,12,26,12.70
2013,10,13,12,27,12.70
2013,10,13,12,28,12.70
2013,10,13,12,29,12.70
2013,10,13,12,30,12.70
2013,10,13,12,31,12.70
2013,10,13,12,32,12.70
2013,10,13,12,33,12.70
2013,10,13,12,34,12.70
2013,10,13,12,35,12.80
2013,10,13,12,36,12.80
2013,10,13,12,37,12.90
2013,10,13,12,38,12.90
2013,10,13,12,39,12.90
2013,10,13,12,40,12.90
2013,10,13,12,41,12.90
2013,10,13,12,42,12.90
2013,10,13,12,43,12.80
2013,10,13,12,44,12.80
2013,10,13,12,45,12.80
2013,10,13,12,46,12.80
2013,10,13,12,47,12.80
2013,10,13,12,48,12.80
2013,10,13,12,49,12.90
2013,10,13,12,50,12.90
2013,10,13,12,51,12.90
2013,10,13,12,52,13.00
2013,10,13,12,53,13.10
2013,10,13,12,54,13.20
2013,10,13,12,55,13.20
2013,10,13,12,56,13.30
2013,10,13,12,57,13.40
2013,10,13,12,58,13.50
2013,10,13,12,59,13.50
2013,10,13,13,00,13.50
2013,10,13,13,01,13.50
2013,10,13,13,02,13.40
2013,10,13,13,03,13.40
2013,10,13,13,04,13.30
2013,10,13,13,05,13.30
2013,10,13,13,06,13.30
2013,10,13,13,07,13.40
2013,10,13,13,08,13.40
2013,10,13,13,09,13.40
2013,10,13,13,10,13.50
2013,10,13,13,11,13.50
2013,10,13,13,12,13.60
2013,10,13,13,13,13.60
2013,10,13,13,14,13.70
2013,10,13,13,15,13.70
2013,10,13,13,16,13.70
2013,10,13,13,17,13.80
2013,10,13,13,18,13.80
2013,10,13,13,19,13.80
2013,10,13,13,20,13.80
2013,10,13,13,21,13.80
2013,10,13,13,22,13.80
2013,10,13,13,23,13.80
2013,10,13,13,24,13.80
2013,10,13,13,25,13.80
2013,10,13,13,26,13.80
2013,10,13,13,27,13.80
2013,10,13,13,28,13.90
2013,10,13,13,29,13.90
2013,10,13,13,30,13.90
2013,10,13,13,31,14.00
2013,10,13,13,32,14.00
2013,10,13,13,33,14.00
2013,10,13,13,34,14.00
2013,10,13,13,35,13.90
2013,10,13,13,36,13.90
2013,10,13,13,37,13.90
2013,10,13,13,38,13.80
2013,10,13,13,39,13.80
2013,10,13,13,40,13.80
2013,10,13,13,41,13.80
2013,10,13,13,42,13.80
2013,10,13,13,43,13.80
2013,10,13,13,44,13.90
2013,10,13,13,45,13.90
2013,10,13,13,46,13.90
2013,10,13,13,47,13.90
2013,10,13,13,48,13.90
2013,10,13,13,49,13.90
2013,10,13,13,50,13.90
2013,10,13,13,51,13.90
2013,10,13,13,52,13.90
2013,10,13,13,53,13.80
2013,10,13,13,54,13.80
2013,10,13,13,55,13.80
2013,10,13,13,56,13.70
2013,10,13,13,57,13.70
2013,10,13,13,58,13.70
2013,10,13,13,59,13.70
2013,10,13,14,00,13.80
2013,10,13,14,01,13.80
2013,10,13,14,02,13.80
2013,10,13,14,03,13.90
2013,10,13,14,04,14.00
2013,10,13,14,05,14.00
2013,10,13,14,06,14.10
2013,10,13,14,07,14.10
2013,10,13,14,08,14.10
2013,10,13,14,09,14.10
2013,10,13,14,10,14.10
2013,10,13,14,11,14.10
2013,10,13,14,12,14.10
2013,10,13,14,13,14.10
2013,10,13,14,14,14.20
2013,10,13,14,15,14.20
2013,10,13,14,16,14.30
2013,10,13,14,17,14.20
2013,10,13,14,18,14.20
2013,10,13,14,19,14.20
2013,10,13,14,20,14.20
2013,10,13,14,21,14.20
2013,10,13,14,22,14.20
2013,10,13,14,23,14.20
2013,10,13,14,24,14.20
2013,10,13,14,25,14.20
2013,10,13,14,26,14.20
2013,10,13,14,27,14.20
2013,10,13,14,28,14.20
2013,10,13,14,29,14.20
2013,10,13,14,30,14.20
2013,10,13,14,31,14.30
2013,10,13,14,32,14.30
2013,10,13,14,33,14.30
2013,10,13,14,34,14.30
2013,10,13,14,35,14.30
2013,10,13,14,36,14.30
2013,10,13,14,37,14.30
2013,10,13,14,38,14.30
2013,10,13,14,39,14.30
2013,10,13,14,40,14.30
2013,10,13,14,41,14.40
2013,10,13,14,42,14.40
2013,10,13,14,43,14.50
2013,10,13,14,44,14.50
2013,10,13,14,45,14.50
2013,10,13,14,46,14.60
2013,10,13,14,47,14.60
2013,10,13,14,48,14.70
2013,10,13,14,49,14.80
2013,10,13,14,50,14.90
2013,10,13,14,51,15.00
2013,10,13,14,52,15.00
2013,10,13,14,53,15.00
2013,10,13,14,54,15.00
2013,10,13,14,55,15.20
2013,10,13,14,56,15.30
2013,10,13,14,57,15.30
2013,10,13,14,58,15.20
2013,10,13,14,59,15.10
2013,10,13,15,00,15.00
2013,10,13,15,01,15.00
2013,10,13,15,02,14.90
2013,10,13,15,03,14.80
2013,10,13,15,04,14.70
2013,10,13,15,05,14.70
2013,10,13,15,06,14.70
2013,10,13,15,07,14.70
2013,10,13,15,08,14.70
2013,10,13,15,09,14.70
2013,10,13,15,10,14.70
2013,10,13,15,11,14.70
2013,10,13,15,12,14.70
2013,10,13,15,13,14.70
2013,10,13,15,14,14.80
2013,10,13,15,15,14.70
2013,10,13,15,16,14.70
2013,10,13,15,17,14.60
2013,10,13,15,18,14.50
2013,10,13,15,19,14.40
2013,10,13,15,20,14.40
2013,10,13,15,21,14.40
2013,10,13,15,22,14.40
2013,10,13,15,23,14.40
2013,10,13,15,24,14.40
2013,10,13,15,25,14.40
2013,10,13,15,26,14.40
2013,10,13,15,27,14.40
2013,10,13,15,28,14.40
2013,10,13,15,29,14.40
2013,10,13,15,30,14.40
2013,10,13,15,31,14.40
2013,10,13,15,32,14.40
2013,10,13,15,33,14.40
2013,10,13,15,34,14.30
2013,10,13,15,35,14.30
2013,10,13,15,36,14.30
2013,10,13,15,37,14.30
2013,10,13,15,38,14.30
2013,10,13,15,39,14.30
2013,10,13,15,40,14.30
2013,10,13,15,41,14.30
2013,10,13,15,42,14.30
2013,10,13,15,43,14.30
2013,10,13,15,44,14.30
2013,10,13,15,45,14.30
2013,10,13,15,46,14.30
2013,10,13,15,47,14.30
2013,10,13,15,48,14.30
2013,10,13,15,49,14.30
2013,10,13,15,50,14.30
2013,10,13,15,51,14.40
2013,10,13,15,52,14.40
2013,10,13,15,53,14.40
2013,10,13,15,54,14.40
2013,10,13,15,55,14.40
2013,10,13,15,56,14.40
2013,10,13,15,57,14.40
2013,10,13,15,58,14.40
2013,10,13,15,59,14.30
2013,10,13,16,00,14.30
2013,10,13,16,01,14.30
2013,10,13,16,02,14.30
2013,10,13,16,03,14.30
2013,10,13,16,04,14.30
2013,10,13,16,05,14.30
2013,10,13,16,06,14.30
2013,10,13,16,07,14.30
2013,10,13,16,08,14.30
2013,10,13,16,09,14.30
2013,10,13,16,10,14.20
2013,10,13,16,11,14.30
2013,10,13,16,12,14.30
2013,10,13,16,13,14.30
2013,10,13,16,14,14.30
2013,10,13,16,15,14.30
2013,10,13,16,16,14.30
2013,10,13,16,17,14.30
2013,10,13,16,18,14.20
2013,10,13,16,19,14.20
2013,10,13,16,20,14.20
2013,10,13,16,21,14.20
2013,10,13,16,22,14.20
2013,10,13,16,23,14.20
2013,10,13,16,24,14.20
2013,10,13,16,25,14.10
2013,10,13,16,26,14.10
2013,10,13,16,27,14.10
2013,10,13,16,28,14.10
2013,10,13,16,29,14.10
2013,10,13,16,30,14.10
2013,10,13,16,31,14.10
2013,10,13,16,32,14.10
2013,10,13,16,33,14.10
2013,10,13,16,34,14.10
2013,10,13,16,35,14.10
2013,10,13,16,36,14.10
2013,10,13,16,37,14.00
2013,10,13,16,38,14.00
2013,10,13,16,39,14.00
2013,10,13,16,40,14.00
2013,10,13,16,41,14.00
2013,10,13,16,42,13.90
2013,10,13,16,43,14.00
2013,10,13,16,44,14.00
2013,10,13,16,45,14.00
2013,10,13,16,46,13.90
2013,10,13,16,47,13.90
2013,10,13,16,48,13.90
2013,10,13,16,49,13.90
2013,10,13,16,50,13.90
2013,10,13,16,51,13.90
2013,10,13,16,52,13.90
2013,10,13,16,53,13.90
2013,10,13,16,54,13.90
2013,10,13,16,55,13.90
2013,10,13,16,56,13.90
2013,10,13,16,57,13.90
2013,10,13,16,58,13.90
2013,10,13,16,59,13.90
2013,10,13,17,00,13.80
2013,10,13,17,01,13.80
2013,10,13,17,02,13.80
2013,10,13,17,03,13.80
2013,10,13,17,04,13.80
2013,10,13,17,05,13.80
2013,10,13,17,06,13.80
2013,10,13,17,07,13.80
2013,10,13,17,08,13.70
2013,10,13,17,09,13.70
2013,10,13,17,10,13.70
2013,10,13,17,11,13.70
2013,10,13,17,12,13.70
2013,10,13,17,13,13.70
2013,10,13,17,14,13.60
2013,10,13,17,15,13.60
2013,10,13,17,16,13.60
2013,10,13,17,17,13.60
2013,10,13,17,18,13.60
2013,10,13,17,19,13.50
2013,10,13,17,20,13.50
2013,10,13,17,21,13.40
2013,10,13,17,22,13.40
2013,10,13,17,23,13.40
2013,10,13,17,24,13.40
2013,10,13,17,25,13.40
2013,10,13,17,26,13.30
2013,10,13,17,27,13.30
2013,10,13,17,28,13.30
2013,10,13,17,29,13.30
2013,10,13,17,30,13.30
2013,10,13,17,31,13.30
2013,10,13,17,32,13.30
2013,10,13,17,33,13.30
2013,10,13,17,34,13.20
2013,10,13,17,35,13.20
2013,10,13,17,36,13.20
2013,10,13,17,37,13.20
2013,10,13,17,38,13.10
2013,10,13,17,39,13.10
2013,10,13,17,40,13.10
2013,10,13,17,41,13.00
2013,10,13,17,42,13.00
2013,10,13,17,43,12.90
2013,10,13,17,44,12.90
2013,10,13,17,45,12.90
2013,10,13,17,46,12.80
2013,10,13,17,47,12.80